This is the latest recevied weather packets stored in our database for station/object KK4KTV-13. If no packets are shown the sender has not sent any weather packets the latest 10 day(s).
| Time | Temp. | Humidity | Pressure | Rain* | Wind** | Luminosity | Snow |
|---|---|---|---|---|---|---|---|
| 1777426022 | 20° C | 96% | 1013.6 hPa | 0 mm | - | 0 W/m² | - |
| 1777425717 | 20° C | 96% | 1013.7 hPa | 0 mm | - | 0 W/m² | - |
| 1777425412 | 20° C | 95% | 1013.5 hPa | 0 mm | - | 0 W/m² | - |
| 1777425109 | 20° C | 95% | 1013.5 hPa | 0 mm | - | 0 W/m² | - |
| 1777424805 | 20° C | 95% | 1013.3 hPa | 0 mm | - | 0 W/m² | - |
| 1777424500 | 20° C | 95% | 1013.5 hPa | 0 mm | - | 0 W/m² | - |
| 1777424197 | 20° C | 96% | 1013.2 hPa | 0 mm | - | 0 W/m² | - |
| 1777423894 | 20° C | 95% | 1013.4 hPa | 0 mm | - | 0 W/m² | - |
| 1777423591 | 20° C | 95% | 1013.2 hPa | 0 mm | - | 0 W/m² | - |
| 1777423286 | 20° C | 95% | 1013.1 hPa | 0 mm | - | 0 W/m² | - |
| 1777422981 | 20° C | 94% | 1013.3 hPa | 0 mm | - | 0 W/m² | - |
| 1777422676 | 20° C | 94% | 1013.4 hPa | 0 mm | - | 0 W/m² | - |
| 1777422371 | 20.56° C | 94% | 1013.3 hPa | 0 mm | - | 0 W/m² | - |
| 1777422066 | 20.56° C | 94% | 1013.5 hPa | 0 mm | - | 1 W/m² | - |
| 1777421761 | 20.56° C | 93% | 1013.5 hPa | 0 mm | - | 1 W/m² | - |
| 1777421457 | 20.56° C | 93% | 1013.5 hPa | 0 mm | - | 2 W/m² | - |
| 1777421153 | 20.56° C | 92% | 1013.5 hPa | 0 mm | - | 3 W/m² | - |
| 1777420850 | 20.56° C | 92% | 1013 hPa | 0 mm | - | 5 W/m² | - |
| 1777420545 | 20.56° C | 91% | 1012.9 hPa | 0 mm | - | 6 W/m² | - |
| 1777420242 | 21.11° C | 91% | 1012.9 hPa | 0 mm | - | 7 W/m² | - |
| 1777419937 | 21.11° C | 90% | 1012.8 hPa | 0 mm | - | 10 W/m² | - |
| 1777419635 | 21.67° C | 90% | 1012.5 hPa | 0 mm | - | 13 W/m² | - |
| 1777419333 | 21.67° C | 88% | 1012.5 hPa | 0 mm | - | 16 W/m² | - |
| 1777419032 | 22.22° C | 86% | 1012.6 hPa | 0 mm | - | 20 W/m² | - |
| 1777418731 | 22.22° C | 85% | 1012.6 hPa | 0 mm | - | 25 W/m² | - |
* Rain latest hour (hover to see other rain measurements)
** Current wind speed in m/s (hover to see current wind gust speed)